Showing default

JILIN-01 GAOFEN 3B, 46454

Orbit data source: Space-Track

JILIN-01 GAOFEN 3B, 46454 is a payload satellite owned by Changguang WJ (CN) in SSO that was launched on Tue, 15 Sep 2020 UTC via a CHANG ZHENG 11 launch vehicle from the Yellow Sea Launch Area, China (YSLA). Payload-class satellites include a variety of spacecraft equipped with specific instruments for various scientific and technological missions. These include communications satellites like Starlink; space stations such as the ISS; scientific satellites like the Hubble; Earth observation satellites from companies like Planet Labs, Umbra, and HawkEye 360; GPS; miniature CubeSats for education and research; and military/defense satellites.

Loading next visibility...
Identifier
46454, 2020-065A
Orbit
SSO
Last TLE update
3 hours ago
Origin
Flag of CNCGSTL (CN / PRC)
Manufacturer
Changguang WJ
Mission
Operational Commercial Imaging
Bus & Motor
JL-1, Unknown motor
Mass
42 kg wet, 42 kg dry
Launch date (UTC)
2020-09-15 (5 years ago)
Launch vehicle
CHANG ZHENG 11
Launch site
Yellow Sea Launch Area, China (YSLA)
Object type
Payload
Rocket body
Debris
Shape & HBR
Box + 2 Pan, 1.5 m
Radar Cross Section
2.000 m², Medium (>0.1 m² and < 1m²)

Expand to show TLE details & history

TLE from 3 hours ago
0 JILIN-01 GAOFEN 3B
1 46454U 20065A   25186.21605125  .00026336  00000-0  55698-3 0  9996
2 46454  97.2814 234.1721 0002618 322.7052  37.4015 15.45122210266203
Epoch: 2025-07-05T05:11Z
TLE epoch observation values (Epoch: 2025-07-05T05:11:06.828Z)
Latitude
0.00001°
Longitude
-127.06363°
Altitude
432.731 km
Speed
7.653 km/s
True Right ascension
15h 36m 41s
True Declination
0° 00' 00"
Sunlit
Object was in full shadow at epoch
Visualization orbit readout
Latitude
-55.92085°
Longitude
-116.1183°
Altitude
451.051 km
Speed
7.641 km/s
Apparent Right ascension
11h 14m 58s
Apparent Declination
-67° 10' 60"
Sunlit
Object is in full shadow
Visualization observer readout
Local Sidereal Time
19:56:49
Azimuth
208.407° SW
Elevation
-51.672°
Doppler factor
1
Orbital elements
Apogee altitude
429.728 km
Perigee altitude
426.164 km
Semi-major axis
6,806.083 km
Eccentricity
0.00026
Inclination
97.2814°
RAAN
234.1721°
Arg. of periapsis
322.7052°
True anomaly
Unknown
Mean anomaly
37.4015°
Eccentric anomaly
Unknown
Mean motion
3.86543 °/min
Orbital period
93.13 mins
BSTAR
0.00055698
Loading maneuver chart data...
Loading SW <> Apogee altitude chart data...
Loading historical data...
Loading historical data...
Loading historical data...
Loading historical data...
Loading historical data...
Loading historical data...
Loading historical data...

JILIN-01 GAOFEN 3B Visibility forecast

Observer location: undefined°, undefined°

Span
Click to sort rows by Start time (UTC) header in descending order
Start Az.
Max El. time (UTC)
Max El. Az.
Max El.
End time (UTC)
End Az.
4 mins2025-07-05 16:38:00.055Z334.797° NNW2025-07-05 16:40:00.055Z275.067° WNW25.567°2025-07-05 16:42:00.055Z230.677° WSW
4 mins2025-07-06 03:06:00.055Z141.195° SSE2025-07-06 03:07:00.055Z98.617° ESE39.759°2025-07-06 03:10:00.055Z357.742° N
|